Aeroporto :
LOGIN :

Iscrizione | Disclaimer

   EN    FR    IT 

 










Sommario :    VFR   VFR Marginale   IFR   IFR Intensivo   IFR Molto Intensivo
Visibilità : 
Base nubi : 
>= 8 km
>= 3000ft
5 / 8 km
1000 / 3000 ft
1500m / 5 km
500 / 1000 ft
800 / 1500m
200 / 500 ft
< 800m
< 200 ft
Simboli :   Temporali  Nebbia  Neve Forte  Precipitazioni Forti  Vento > 20 kt
SIGMETs :   Varie  Temporali  Ghiacco  Turbolenza  Onda orograficha  Ceneri Vulcaniche






- Altitudine del aeroporto : 1325 ft
- Codice IATA : EBU


LFMH - St-Etienne Boutheon

ULTIMO METAR :
  • 210800Z AUTO 19006KT 9999 OVC036 06/04 Q1007 NOSIG

METARs OBSOLETI :
  • 210730Z AUTO 21003KT 170V240 9999 BKN042 OVC050 06/04 Q1007 NOSIG
  • 210700Z AUTO VRB03KT 9999 FEW045 SCT056 04/03 Q1007 TEMPO 3000 BR
  • 210630Z AUTO 28003KT 240V330 9999 BKN046 04/02 Q1007 TEMPO 3000 BR BECMG 16010KT
  • 210600Z AUTO 19003KT 150V220 9999 BKN047 04/03 Q1007 TEMPO 3000 BR
  • 210530Z AUTO 15004KT 9999 SCT040 03/02 Q1007 TEMPO 3000 BR

TAF TAF LFMH
Valido dal 21 a 03 ore il 22 a 03 ore UTC


210200Z 2103/2203 16010KT 6000 BKN035
TEMPO 2103/2108 3000 BR
PROB40
TEMPO 2114/2117 4000 RA
ATIS : +33 4 77 36 17 51



MetMap, La meteo Aeronautica in un colpo d'occhio ! - Copyright ORBIFLY Dicembre 2007 - Disclaimer

ORBIFLY MET'MAP TEAM :

Programmazione e sviluppo : Alexandra Zaïnal
Concezione e sviluppo : Baudouin d'Aumeries
Co-Programmazione e sviluppo : Marc-Olivier Méhu
Supporto tecnico e logistico : Manuel Goepfert
Aiuto per la traduzione : Arnaldo La Scala

Contatto : metmap@orbifly.com




FONTI E CREDITI :

   NOAA